Wind_Speed
20 21 21 21 21 22 22 21 22 22 23 23 23 22 22 21 21 22 22 22 21 21 21 20 20 20 20 20 20 20 19 19 18 17 17 17 17 18 18 18 18 19 19
22 21 22 22 22 22 22 22 23 23 23 23 23 23 22 22 22 22 22 23 22 22 21 21 21 20 21 21 21 20 20 20 19 19 19 19 19 20 20 20 21 21 21
23 23 23 22 22 22 23 23 24 24 24 24 24 23 23 24 23 23 23 23 23 22 22 22 21 21 21 21 22 21 21 22 21 21 21 21 21 21 21 22 23 22 22
23 23 23 23 23 23 24 24 24 25 25 25 25 25 24 24 23 23 23 23 23 23 22 22 22 21 21 21 22 22 23 23 23 23 22 23 23 23 23 23 24 23 23
22 23 23 23 24 25 25 25 26 26 27 27 26 25 25 25 24 24 23 23 23 23 23 23 22 22 22 21 22 22 23 24 24 23 24 24 25 25 25 25 26 25 24
22 23 23 24 24 25 26 26 27 26 26 26 26 26 25 25 25 25 24 24 24 23 22 22 23 23 22 21 21 22 22 23 24 24 24 24 25 26 26 26 27 25 25
23 23 23 24 24 25 26 26 26 26 26 26 26 26 26 26 26 26 26 25 25 24 24 23 24 24 23 23 23 23 23 24 24 24 25 25 26 27 27 28 28 27 26
24 24 24 25 25 26 26 26 26 26 26 26 26 27 27 27 27 27 27 26 26 25 25 25 25 25 25 25 25 25 25 25 25 25 25 26 27 28 28 29 29 29 28
26 26 26 26 26 26 27 27 27 27 27 27 27 27 27 27 27 28 27 27 27 26 26 27 27 27 27 27 27 27 27 27 27 27 26 27 28 28 29 29 30 30 29
27 27 27 27 28 28 28 28 27 27 28 28 28 28 27 27 28 28 28 28 28 28 28 29 29 29 29 29 28 28 27 28 28 28 28 27 28 30 30 30 30 30 30
28 28 28 28 28 29 29 29 28 28 28 28 28 28 28 28 29 29 29 29 29 29 29 30 30 30 30 29 29 29 29 30 30 31 30 29 29 30 30 30 30 30 31
29 29 29 29 29 29 29 29 29 29 29 29 29 29 29 28 28 29 29 29 30 30 30 30 31 31 31 30 30 31 31 31 31 31 31 30 30 31 31 31 31 31 31
29 29 29 29 29 29 29 29 29 29 29 29 29 29 28 28 29 29 29 30 30 30 30 30 30 30 30 30 31 31 32 32 32 32 32 31 31 31 32 32 32 32 32
30 30 29 29 29 29 30 30 30 30 30 30 29 29 29 29 29 30 30 30 31 30 31 31 31 30 31 31 31 30 31 31 32 32 32 32 32 32 32 32 33 32 32
30 30 30 30 30 30 31 31 31 30 30 30 30 30 30 30 30 30 30 31 31 31 31 31 31 31 31 32 32 31 31 31 31 32 32 32 32 32 32 32 33 33 33
29 29 30 30 30 31 31 31 30 30 30 31 30 30 30 30 30 30 30 30 31 31 31 31 31 31 31 30 31 31 32 32 32 32 32 32 32 32 32 32 32 33 34
29 29 29 30 30 31 31 31 30 30 30 30 30 30 30 30 31 31 31 31 31 31 31 30 30 31 30 31 31 31 32 32 33 32 33 33 33 33 32 32 33 33 34
29 29 30 30 31 31 30 30 30 30 30 30 30 30 30 30 31 31 31 31 30 30 30 30 30 30 31 31 31 32 32 31 31 31 32 33 33 33 33 33 32 32 33
28 29 29 30 30 30 30 29 29 30 30 30 30 30 30 30 31 31 31 31 30 29 29 29 29 29 29 30 31 31 30 30 30 31 31 32 33 33 33 34 33 33 33
29 28 28 29 29 30 31 30 30 30 30 30 30 30 31 31 31 31 30 30 30 30 30 30 29 29 30 30 30 30 30 29 29 30 30 30 31 32 32 32 32 33 32
29 29 29 29 30 30 31 31 30 31 31 31 31 31 31 30 30 30 29 29 29 29 29 30 30 31 31 31 30 30 29 30 30 31 31 31 31 31 31 31 32 32 33
29 29 29 29 30 30 30 30 31 31 31 32 31 31 31 31 31 30 30 29 29 29 29 29 30 30 30 30 30 29 29 29 30 30 31 30 30 30 30 31 32 32 33
30 30 31 31 32 32 31 31 31 32 32 32 32 32 31 31 30 30 29 29 28 28 28 29 29 29 29 29 29 29 29 29 29 29 29 29 29 30 31 32 32 33 33
30 31 31 32 32 31 31 31 32 32 32 32 32 32 31 31 30 30 30 29 29 28 28 28 28 28 28 28 28 29 29 29 29 29 29 29 29 29 30 31 31 31 32
30 31 31 31 31 31 31 31 31 31 31 31 30 31 30 30 30 30 30 30 29 29 28 28 27 26 26 26 27 27 27 28 28 28 29 29 30 30 30 30 30 31 31
32 32 32 31 30 31 31 31 30 30 30 30 30 31 31 30 31 31 31 30 29 29 29 28 27 26 26 26 26 25 26 27 28 28 28 28 29 29 29 29 30 30 31
Wind_Direction
281 283 284 284 286 286 287 288 289 291 293 296 293 292 290 288 287 286 284 285 284 284 282 281 279 276 274 273 273 273 271 269 267 265 264 261 256 256 257 258 259 260 258
280 282 283 283 285 285 286 288 288 290 292 295 294 292 290 289 288 287 285 284 283 283 282 280 278 276 274 273 274 273 271 267 266 265 262 259 257 257 260 260 261 261 259
281 282 283 284 285 286 287 288 288 289 291 293 292 292 292 291 289 288 287 285 285 284 282 280 277 276 275 274 273 271 270 267 266 265 262 259 258 258 260 262 263 263 260
282 283 283 284 286 287 288 289 290 290 291 292 291 291 292 292 290 288 288 286 284 283 282 279 276 275 275 275 273 272 270 268 265 264 262 260 259 260 262 264 264 264 260
283 284 284 284 286 287 289 290 290 291 290 291 290 289 289 289 289 288 287 286 283 281 279 278 276 275 275 275 275 274 272 268 266 265 263 262 261 260 261 264 266 264 263
284 284 284 285 286 287 289 289 290 291 291 289 289 288 287 287 288 289 287 285 282 281 280 277 277 276 275 275 276 276 273 271 269 267 265 264 264 263 261 262 264 263 263
284 284 285 286 288 289 289 290 291 291 291 289 289 288 287 285 286 286 286 283 280 277 277 277 276 275 273 274 274 273 274 274 271 270 268 266 266 266 262 261 262 263 263
283 283 285 286 288 288 288 288 289 289 290 290 289 288 287 286 286 286 284 282 279 276 275 275 275 275 275 275 273 271 272 272 271 271 271 269 267 267 266 263 261 262 262
285 285 285 286 286 286 287 286 287 289 290 290 289 287 287 286 284 284 282 282 279 278 276 275 274 275 275 276 275 273 272 272 272 272 272 271 270 268 266 265 263 262 262
284 284 284 285 283 285 286 285 286 288 289 289 288 287 286 284 283 282 282 283 281 279 277 277 276 276 276 277 275 274 273 273 273 272 272 272 270 268 265 263 263 263 264
283 284 284 284 284 284 286 286 285 286 287 288 288 287 286 285 284 283 283 283 282 281 278 276 275 275 276 276 275 275 275 275 273 272 273 273 271 267 265 263 263 264 265
282 284 285 285 285 285 285 286 287 287 287 288 288 287 287 286 285 284 283 283 282 282 280 278 276 275 275 274 274 274 274 275 274 272 272 272 272 269 266 265 266 267 267
283 284 286 287 287 286 286 287 287 287 288 288 287 287 288 287 286 285 283 283 282 282 281 279 278 277 275 274 274 275 274 275 275 273 272 273 273 272 269 266 266 268 267
281 283 285 286 287 287 287 287 287 286 287 287 287 287 288 288 286 284 283 282 281 281 280 280 279 279 277 276 277 278 277 276 276 274 273 274 273 272 270 268 267 267 266
281 282 283 284 286 286 287 286 285 285 285 287 287 287 287 287 286 285 283 282 281 280 280 280 280 280 279 279 278 279 279 277 275 273 273 273 273 272 272 270 269 268 267
282 282 282 282 285 286 287 288 286 285 285 285 285 287 287 287 287 286 285 283 282 280 280 280 279 280 279 279 279 279 280 277 275 274 272 272 273 272 272 271 270 269 268
286 285 283 284 285 287 287 289 288 287 286 286 287 288 289 288 287 286 285 285 282 281 280 280 279 279 279 278 279 279 279 277 276 274 272 271 271 271 270 271 271 271 270
286 285 285 286 286 287 287 288 288 287 287 286 287 289 289 288 287 286 286 285 283 282 281 279 279 279 279 279 279 279 278 277 276 275 273 272 271 271 271 270 270 271 272
287 287 287 288 288 288 288 289 288 288 287 287 287 288 289 288 288 287 286 285 282 281 281 280 280 280 279 279 279 279 278 277 276 276 275 273 271 271 270 270 271 271 272
287 288 288 289 289 289 288 289 289 289 289 289 289 289 289 289 288 288 287 284 282 281 280 280 279 279 279 279 279 279 278 278 278 279 277 276 274 272 272 271 271 271 271
286 286 288 290 290 290 290 290 291 291 289 289 289 289 289 289 289 289 288 286 283 281 280 281 279 278 279 280 279 278 278 278 279 279 279 278 276 275 274 272 271 271 272
288 288 289 290 291 291 291 292 292 291 291 289 289 288 288 288 288 288 288 287 285 283 282 282 282 280 279 279 278 277 277 278 279 279 279 277 276 274 273 273 273 273 273
289 290 291 291 292 292 292 292 292 292 292 290 289 289 288 288 288 288 287 286 285 285 285 284 283 282 281 279 278 277 278 279 280 281 280 278 277 275 274 273 273 273 273
289 290 291 292 293 294 294 294 294 294 293 292 290 289 289 288 288 287 287 285 285 285 286 285 285 285 284 282 280 278 278 279 280 282 281 280 279 278 278 277 275 274 273
290 291 291 292 293 295 296 296 294 293 293 292 290 290 290 289 288 287 286 286 285 283 284 284 285 285 284 284 282 280 279 279 280 281 281 280 280 280 280 279 277 277 275
290 290 291 291 292 294 295 296 294 293 293 292 291 290 290 289 287 285 285 285 284 282 283 283 284 284 284 284 283 283 282 282 282 282 282 282 281 281 282 281 280 278 277
Height
5793 5792 5792 5791 5790 5790 5789 5787 5786 5785 5784 5782 5781 5779 5778 5777 5776 5775 5773 5772 5772 5771 5770 5769 5769 5769 5768 5768 5768 5768 5769 5769 5769 5771 5772 5773 5775 5776 5777 5778 5780 5781 5782
5787 5787 5786 5786 5785 5784 5783 5782 5781 5780 5778 5777 5775 5773 5772 5771 5770 5768 5767 5766 5765 5764 5764 5763 5763 5762 5762 5762 5762 5762 5763 5763 5764 5765 5766 5767 5769 5771 5772 5773 5774 5775 5776
5782 5781 5781 5780 5779 5778 5777 5776 5775 5774 5772 5771 5769 5767 5766 5764 5763 5762 5761 5760 5759 5758 5757 5757 5756 5756 5756 5756 5756 5756 5757 5757 5757 5759 5760 5761 5763 5764 5766 5767 5767 5768 5769
5776 5775 5775 5774 5773 5772 5771 5770 5769 5767 5766 5764 5762 5761 5759 5758 5757 5756 5755 5753 5752 5752 5751 5750 5750 5750 5750 5750 5749 5749 5749 5750 5750 5752 5753 5755 5756 5757 5759 5759 5760 5761 5762
5770 5770 5769 5768 5767 5766 5765 5764 5762 5760 5759 5757 5755 5754 5753 5751 5750 5749 5748 5747 5746 5745 5744 5744 5744 5743 5743 5743 5743 5742 5742 5742 5743 5745 5746 5747 5749 5750 5751 5752 5753 5754 5755
5764 5763 5762 5762 5761 5759 5758 5756 5755 5753 5751 5750 5748 5747 5745 5744 5742 5741 5740 5739 5739 5738 5738 5737 5737 5737 5737 5736 5736 5735 5735 5735 5736 5737 5739 5740 5741 5742 5744 5745 5745 5746 5748
5758 5757 5756 5755 5754 5752 5751 5749 5748 5746 5744 5742 5741 5739 5738 5736 5735 5734 5733 5732 5731 5731 5731 5730 5730 5730 5730 5730 5730 5729 5729 5728 5729 5730 5732 5733 5734 5734 5736 5736 5737 5738 5740
5751 5750 5749 5748 5747 5745 5744 5742 5741 5739 5737 5735 5733 5732 5730 5729 5727 5726 5725 5724 5723 5723 5723 5723 5723 5723 5723 5723 5722 5722 5722 5722 5722 5723 5724 5725 5725 5725 5727 5728 5729 5730 5731
5744 5743 5742 5741 5739 5738 5736 5735 5733 5731 5730 5728 5726 5724 5722 5721 5720 5718 5717 5716 5715 5715 5715 5715 5715 5715 5715 5715 5715 5715 5715 5715 5715 5715 5716 5716 5716 5717 5718 5719 5720 5721 5722
5737 5736 5735 5733 5732 5730 5728 5727 5725 5723 5721 5719 5718 5716 5714 5713 5712 5710 5709 5708 5708 5707 5707 5707 5707 5706 5706 5706 5706 5706 5707 5707 5707 5707 5708 5708 5708 5708 5708 5709 5710 5711 5713
5729 5728 5727 5725 5723 5722 5720 5718 5717 5715 5713 5711 5710 5708 5706 5705 5703 5702 5701 5700 5699 5698 5698 5698 5698 5697 5697 5697 5697 5697 5698 5698 5698 5698 5698 5698 5699 5699 5699 5700 5701 5702 5703
5721 5720 5719 5717 5716 5714 5712 5710 5709 5707 5705 5703 5702 5700 5698 5697 5695 5694 5692 5691 5691 5690 5689 5688 5688 5688 5688 5688 5688 5688 5688 5688 5688 5689 5689 5689 5689 5689 5690 5690 5691 5691 5692
5713 5712 5710 5709 5707 5706 5704 5702 5700 5699 5697 5695 5694 5692 5690 5688 5687 5685 5684 5683 5682 5681 5680 5679 5679 5679 5678 5678 5678 5678 5678 5679 5679 5679 5679 5680 5680 5680 5680 5680 5681 5681 5682
5704 5703 5702 5700 5699 5697 5695 5694 5692 5690 5689 5687 5685 5683 5682 5680 5678 5676 5675 5674 5673 5672 5671 5671 5670 5670 5669 5669 5669 5669 5669 5669 5669 5669 5669 5669 5669 5669 5670 5670 5670 5671 5672
5695 5694 5693 5692 5690 5689 5687 5685 5684 5682 5680 5678 5677 5675 5673 5671 5669 5667 5666 5665 5664 5663 5662 5662 5661 5660 5660 5660 5660 5659 5659 5659 5659 5659 5659 5659 5659 5659 5659 5659 5660 5660 5661
5685 5684 5684 5682 5681 5680 5678 5676 5674 5673 5671 5669 5667 5666 5664 5662 5660 5658 5657 5656 5655 5654 5653 5653 5652 5651 5651 5650 5650 5650 5649 5649 5649 5648 5648 5649 5649 5649 5649 5649 5649 5650 5650
5676 5675 5674 5673 5672 5671 5669 5667 5666 5664 5662 5661 5659 5657 5655 5653 5651 5649 5648 5646 5645 5644 5644 5643 5643 5642 5641 5641 5640 5640 5639 5639 5638 5638 5638 5638 5639 5639 5639 5639 5639 5639 5639
5668 5667 5666 5665 5663 5662 5660 5658 5657 5655 5654 5652 5650 5648 5646 5644 5642 5640 5639 5637 5636 5635 5635 5634 5633 5633 5632 5631 5630 5630 5629 5628 5628 5627 5627 5627 5628 5628 5628 5628 5628 5629 5629
5660 5659 5657 5656 5654 5653 5651 5649 5647 5646 5644 5643 5641 5639 5637 5635 5633 5631 5629 5628 5627 5626 5625 5625 5624 5623 5622 5621 5620 5620 5619 5619 5618 5617 5617 5617 5617 5617 5617 5617 5617 5618 5618
5652 5651 5649 5647 5645 5644 5642 5640 5639 5637 5635 5633 5632 5630 5628 5626 5624 5622 5620 5619 5618 5617 5617 5616 5615 5614 5613 5612 5611 5610 5610 5609 5609 5608 5607 5607 5607 5607 5607 5607 5607 5607 5607
5644 5642 5641 5639 5637 5635 5633 5632 5630 5628 5626 5624 5623 5621 5619 5617 5615 5614 5612 5610 5609 5608 5608 5607 5606 5605 5604 5603 5602 5601 5601 5600 5599 5599 5598 5597 5597 5597 5597 5597 5597 5597 5597
5636 5634 5632 5630 5628 5626 5624 5622 5621 5619 5617 5616 5614 5612 5610 5608 5607 5605 5604 5602 5601 5599 5599 5598 5597 5596 5595 5594 5593 5592 5591 5591 5590 5589 5588 5587 5587 5586 5586 5586 5586 5586 5586
5628 5626 5624 5622 5620 5618 5615 5613 5611 5610 5608 5606 5605 5603 5601 5600 5598 5596 5595 5594 5592 5591 5590 5589 5587 5586 5585 5584 5583 5583 5582 5582 5580 5579 5578 5578 5577 5576 5576 5576 5576 5575 5575
5619 5618 5616 5613 5611 5609 5607 5605 5602 5601 5599 5597 5595 5594 5592 5591 5589 5588 5587 5585 5584 5583 5581 5580 5579 5577 5576 5575 5574 5573 5573 5572 5571 5570 5569 5568 5567 5566 5566 5565 5565 5565 5564
5610 5609 5607 5605 5603 5600 5598 5596 5594 5592 5590 5588 5586 5585 5584 5582 5580 5579 5577 5576 5575 5574 5573 5571 5570 5569 5567 5566 5565 5564 5563 5563 5562 5561 5559 5558 5558 5557 5556 5555 5555 5554 5553
5601 5600 5598 5596 5594 5591 5589 5587 5585 5583 5581 5579 5578 5576 5574 5573 5571 5570 5568 5567 5566 5565 5564 5562 5561 5560 5559 5558 5557 5556 5555 5554 5553 5551 5550 5549 5548 5547 5546 5545 5545 5544 5543